Station AKXA2 - Akutan, AK Image indicating link to RSS feed of recent meteorological observations for station AKXA2


Conditions at AKXA2 as of
(11:14 am AKDT)
1914 GMT on 05/28/2024:
     

Click on the graph icon in the table below to see a time series plot of the last five days of that observation.

5-day plot - Wind Direction Wind Direction (WDIR): SE ( 130 deg true )
5-day plot - Wind Speed Wind Speed (WSPD): 3 kts
5-day plot - Wind Gust Wind Gust (GST): 5 kts
5-day plot - Atmospheric Pressure Atmospheric Pressure (PRES):29.43 in
5-day plot - Air Temperature Air Temperature (ATMP): 40.1 °F
5-day plot - Dew Point Dew Point (DEWP): 37.4 °F
5-day plot - Wind Chill Wind Chill (CHILL): 38.1 °F
5-day plot - Wind Speed at 10 Meters Wind Speed at 10 meters (WSPD10M): 4 kts
5-day plot - Wind Speed at 20 Meters Wind Speed at 20 meters (WSPD20M): 4 kts
5-day plot -  Wind Speed, Wind Gust and Atmospheric Pressure Combined plot of Wind Speed, Gust, and Air Pressure
Previous observations
TIME
(AKDT)
5-day plot - Wind Direction
WDIR
 
5-day plot - Wind Speed
WSPD
kts
5-day plot - Wind Gust
GST
kts
5-day plot - Wave Height
WVHT
ft
5-day plot - Dominant Wave Period
DPD
sec
5-day plot - Average Wave Period
APD
sec
5-day plot - Mean Wave Direction
MWD
 
5-day plot - Atmospheric Pressure
PRES
in
5-day plot - Pressure Tendency
PTDY
in
5-day plot - Air Temperature
ATMP
°F
5-day plot - Water Temperature
WTMP
°F
5-day plot - Dew Point
DEWP
°F
5-day plot - Salinity
SAL
psu
5-day plot - Visibility
VIS
nmi
5-day plot - Tide (above MLLW)
TIDE
ft
2024-05-28 11:04 am SE 4 5----29.43- 39.9- 37.4---
2024-05-28 10:54 am SE 4 5----29.43- 39.9- 37.6---
2024-05-28 10:44 am SE 5 6----29.43- 39.7- 37.4---
2024-05-28 10:34 am SE 6 7----29.43- 39.9- 37.8---
2024-05-28 10:24 amSSE 4 7----29.43- 40.3- 38.1---
2024-05-28 10:14 am S 2 3----29.43- 40.5- 38.3---
2024-05-28 10:04 am S 3 4----29.43- 40.3- 38.5---
2024-05-28 09:54 amSSE 4 6----29.42- 39.9- 38.7---
2024-05-28 09:44 amSSE 5 6----29.43- 39.9- 38.8---
2024-05-28 09:34 am SE 3 5----29.42- 40.1- 39.2---
2024-05-28 09:24 amSSE 2 4----29.42- 40.1- 39.6---
2024-05-28 09:14 amSSE 4 4----29.42- 40.3- 39.7---
2024-05-28 09:04 amSSE 3 4----29.42- 40.3- 39.6---
2024-05-28 08:54 amSSE 4 4----29.42- 40.3- 39.6---
2024-05-28 08:44 am SE 3 4----29.42- 40.6- 39.6---
2024-05-28 08:35 amESE 3 4----29.43- 40.6- 39.6---
2024-05-28 08:24 amESE 4 4----29.43- 40.6- 39.6---
2024-05-28 08:14 amESE 4 4----29.43- 40.6- 39.6---
2024-05-28 08:04 amESE 4 5----29.43- 40.8- 39.6---
2024-05-28 07:54 am E 4 5----29.43- 40.8- 39.6---
2024-05-28 07:44 amENE 4 6----29.43- 40.8- 39.6---
2024-05-28 07:34 amENE 4 5----29.43- 40.8- 39.7---